When you browse on this site, cookies collect data to enhance your experience and personalize the content and advertising you see.
Visit our Privacy Policy to learn more. By continuing to use the site, you agree to this use of cookies and data.
EN

Hourly Weather Darabani

Today, 3 July, Friday

Time Temperature Precipitation Wind Pressure Humidity
00:00 +23°C° 0 mm 2 mps 742 mmHg 79%
01:00 +21°C° 0 mm 2 mps 742 mmHg 79%
02:00 +21°C° 0 mm 1 mps 742 mmHg 76%
03:00 +21°C° 0 mm 1 mps 742 mmHg 78%
04:00 +20°C° 0 mm 2 mps 742 mmHg 81%
05:00 +19°C° 0 mm 2 mps 742 mmHg 84%
06:00 +22°C° 0 mm 1 mps 742 mmHg 81%
07:00 +23°C° 0 mm 1 mps 742 mmHg 79%
08:00 +25°C° 0 mm 1 mps 743 mmHg 75%
09:00 +26°C° 0 mm 1 mps 742 mmHg 71%
10:00 +28°C° 0 mm 2 mps 742 mmHg 67%
11:00 +29°C° 0 mm 2 mps 742 mmHg 63%
12:00 +30°C° 0 mm 2 mps 742 mmHg 61%
13:00 +30°C° 0 mm 3 mps 742 mmHg 59%
14:00 +30°C° 0 mm 2 mps 742 mmHg 55%
15:00 +29°C° 0.3 mm 2 mps 742 mmHg 61%
16:00 +28°C° 0.3 mm 2 mps 742 mmHg 67%
17:00 +27°C° 0.3 mm 2 mps 742 mmHg 73%
18:00 +26°C° 0.2 mm 2 mps 742 mmHg 75%
19:00 +25°C° 0.2 mm 1 mps 742 mmHg 77%
20:00 +25°C° 0.2 mm 1 mps 743 mmHg 79%
21:00 +24°C° 0.4 mm 2 mps 743 mmHg 81%
22:00 +23°C° 0.4 mm 2 mps 743 mmHg 84%
23:00 +22°C° 0.4 mm 3 mps 743 mmHg 87%

Tomorrow, 4 July, Saturday

Time Temperature Precipitation Wind Pressure Humidity
00:00 +21°C° 0.8 mm 3 mps 743 mmHg 89%
01:00 +21°C° 0.8 mm 3 mps 744 mmHg 92%
02:00 +20°C° 0.8 mm 3 mps 744 mmHg 94%
03:00 +20°C° 0.8 mm 3 mps 744 mmHg 95%
04:00 +20°C° 0.8 mm 3 mps 744 mmHg 95%
05:00 +20°C° 0.8 mm 3 mps 744 mmHg 96%
06:00 +20°C° 0.3 mm 4 mps 745 mmHg 94%
07:00 +20°C° 0.3 mm 4 mps 745 mmHg 93%
08:00 +21°C° 0.3 mm 4 mps 745 mmHg 91%
09:00 +22°C° 0 mm 4 mps 745 mmHg 89%
10:00 +23°C° 0 mm 4 mps 745 mmHg 86%
11:00 +23°C° 0 mm 4 mps 746 mmHg 83%
12:00 +25°C° 1.1 mm 4 mps 745 mmHg 81%
13:00 +25°C° 1.1 mm 4 mps 745 mmHg 80%
14:00 +26°C° 1.1 mm 4 mps 745 mmHg 78%
15:00 +26°C° 0.8 mm 4 mps 745 mmHg 80%
16:00 +25°C° 0.8 mm 4 mps 745 mmHg 81%
17:00 +25°C° 0.8 mm 4 mps 745 mmHg 83%
18:00 +24°C° 0.2 mm 3 mps 745 mmHg 85%
19:00 +24°C° 0.2 mm 3 mps 745 mmHg 87%
20:00 +23°C° 0.2 mm 2 mps 745 mmHg 90%
21:00 +21°C° 0 mm 3 mps 745 mmHg 91%
22:00 +21°C° 0 mm 3 mps 745 mmHg 92%
23:00 +20°C° 0 mm 3 mps 745 mmHg 93%

Day after tomorrow, 5 July, Sunday

Time Temperature Precipitation Wind Pressure Humidity
00:00 +20°C° 0.2 mm 3 mps 745 mmHg 93%
01:00 +20°C° 0.2 mm 3 mps 745 mmHg 94%
02:00 +19°C° 0.2 mm 3 mps 745 mmHg 94%
03:00 +19°C° 0 mm 3 mps 745 mmHg 94%
04:00 +19°C° 0 mm 2 mps 745 mmHg 95%
05:00 +18°C° 0 mm 2 mps 745 mmHg 95%
06:00 +20°C° 0 mm 3 mps 745 mmHg 92%
07:00 +21°C° 0 mm 3 mps 745 mmHg 88%
08:00 +22°C° 0 mm 3 mps 745 mmHg 85%
09:00 +23°C° 0 mm 4 mps 746 mmHg 80%
10:00 +26°C° 0 mm 4 mps 746 mmHg 75%
11:00 +27°C° 0 mm 4 mps 746 mmHg 70%
12:00 +27°C° 0.1 mm 4 mps 745 mmHg 69%
13:00 +28°C° 0.1 mm 3 mps 745 mmHg 67%
14:00 +28°C° 0.1 mm 3 mps 745 mmHg 66%
15:00 +28°C° 0.1 mm 3 mps 745 mmHg 66%
16:00 +28°C° 0.1 mm 3 mps 745 mmHg 67%
17:00 +28°C° 0.1 mm 3 mps 745 mmHg 67%
18:00 +26°C° 0.1 mm 3 mps 745 mmHg 72%
19:00 +25°C° 0.1 mm 2 mps 745 mmHg 77%
20:00 +24°C° 0.1 mm 2 mps 745 mmHg 82%
21:00 +23°C° 0 mm 2 mps 745 mmHg 84%
22:00 +22°C° 0 mm 1 mps 745 mmHg 86%
23:00 +21°C° 0 mm 1 mps 745 mmHg 88%

6 July, Monday

Time Temperature Precipitation Wind Pressure Humidity
00:00 +21°C° 0 mm 1 mps 745 mmHg 88%
01:00 +20°C° 0 mm 1 mps 745 mmHg 89%
02:00 +20°C° 0 mm 1 mps 745 mmHg 90%
03:00 +18°C° 0 mm 0 mps 745 mmHg 90%
04:00 +18°C° 0 mm 0 mps 744 mmHg 90%
05:00 +18°C° 0 mm 0 mps 744 mmHg 91%
06:00 +21°C° 0 mm 1 mps 744 mmHg 86%
07:00 +23°C° 0 mm 1 mps 744 mmHg 82%
08:00 +24°C° 0 mm 1 mps 744 mmHg 77%
09:00 +25°C° 0 mm 1 mps 744 mmHg 73%
10:00 +26°C° 0 mm 2 mps 744 mmHg 69%
11:00 +27°C° 0 mm 2 mps 743 mmHg 65%
12:00 +28°C° 0 mm 2 mps 743 mmHg 63%
13:00 +29°C° 0 mm 2 mps 743 mmHg 60%
14:00 +29°C° 0 mm 2 mps 742 mmHg 58%
15:00 +29°C° 0 mm 2 mps 742 mmHg 58%
16:00 +30°C° 0 mm 2 mps 741 mmHg 59%
17:00 +30°C° 0 mm 2 mps 741 mmHg 59%
18:00 +28°C° 0 mm 2 mps 741 mmHg 63%
19:00 +27°C° 0 mm 1 mps 741 mmHg 68%
20:00 +25°C° 0 mm 1 mps 741 mmHg 72%
21:00 +25°C° 0 mm 1 mps 741 mmHg 73%
22:00 +24°C° 0 mm 1 mps 741 mmHg 74%
23:00 +23°C° 0 mm 1 mps 741 mmHg 75%

7 July, Tuesday

Time Temperature Precipitation Wind Pressure Humidity
00:00 +23°C° 0.1 mm 1 mps 741 mmHg 77%
01:00 +22°C° 0.1 mm 1 mps 741 mmHg 79%
02:00 +22°C° 0.1 mm 1 mps 741 mmHg 81%
03:00 +21°C° 1.3 mm 1 mps 741 mmHg 85%
04:00 +20°C° 1.3 mm 2 mps 741 mmHg 89%
05:00 +20°C° 1.3 mm 3 mps 741 mmHg 93%
06:00 +20°C° 1.6 mm 4 mps 741 mmHg 93%
07:00 +20°C° 1.6 mm 5 mps 742 mmHg 93%
08:00 +20°C° 1.6 mm 6 mps 742 mmHg 93%
09:00 +20°C° 1.6 mm 6 mps 743 mmHg 93%
10:00 +19°C° 1.6 mm 6 mps 743 mmHg 93%
11:00 +19°C° 1.6 mm 6 mps 743 mmHg 92%
12:00 +19°C° 0.2 mm 5 mps 743 mmHg 90%
13:00 +20°C° 0.2 mm 5 mps 743 mmHg 88%
14:00 +20°C° 0.2 mm 5 mps 744 mmHg 86%
15:00 +20°C° 0 mm 5 mps 744 mmHg 82%
16:00 +21°C° 0 mm 5 mps 744 mmHg 79%
17:00 +21°C° 0 mm 5 mps 744 mmHg 75%
18:00 +21°C° 0 mm 5 mps 744 mmHg 77%
19:00 +20°C° 0 mm 4 mps 744 mmHg 79%
20:00 +19°C° 0 mm 4 mps 745 mmHg 80%
21:00 +19°C° 0 mm 4 mps 745 mmHg 79%
22:00 +18°C° 0 mm 4 mps 745 mmHg 77%
23:00 +18°C° 0 mm 4 mps 745 mmHg 75%

8 July, Wednesday

Time Temperature Precipitation Wind Pressure Humidity
00:00 +18°C° 0 mm 4 mps 746 mmHg 76%
01:00 +17°C° 0 mm 4 mps 746 mmHg 76%
02:00 +17°C° 0 mm 4 mps 746 mmHg 76%
03:00 +17°C° 0 mm 3 mps 746 mmHg 77%
04:00 +16°C° 0 mm 3 mps 746 mmHg 78%
05:00 +16°C° 0 mm 3 mps 746 mmHg 80%
06:00 +16°C° 0 mm 3 mps 747 mmHg 80%
07:00 +17°C° 0 mm 4 mps 747 mmHg 81%
08:00 +17°C° 0 mm 4 mps 747 mmHg 82%
09:00 +18°C° 0 mm 4 mps 747 mmHg 78%
10:00 +19°C° 0 mm 4 mps 747 mmHg 74%
11:00 +20°C° 0 mm 4 mps 748 mmHg 70%
12:00 +20°C° 0 mm 4 mps 748 mmHg 68%
13:00 +21°C° 0 mm 4 mps 748 mmHg 65%
14:00 +22°C° 0 mm 4 mps 747 mmHg 62%
15:00 +22°C° 0 mm 4 mps 747 mmHg 63%
16:00 +22°C° 0 mm 4 mps 747 mmHg 65%
17:00 +22°C° 0 mm 4 mps 747 mmHg 66%
18:00 +20°C° 0 mm 4 mps 748 mmHg 71%
19:00 +19°C° 0 mm 3 mps 748 mmHg 77%
20:00 +17°C° 0 mm 3 mps 748 mmHg 82%
21:00 +16°C° 0 mm 3 mps 749 mmHg 82%
22:00 +15°C° 0 mm 2 mps 749 mmHg 82%
23:00 +14°C° 0 mm 2 mps 749 mmHg 83%
Show more